Dewpoint
46 45 45 45 44 44 44 45 45 45 46 46 46 47 49 48 49 50 50 50 50 50 51 52 53 53 54 55 55 54 53 46 44 43 42 43 47 49 51 53 54 53 50 51 50 44 34 35 29 32 30 27 30 23 35 31 33 26 18 15 12 11 10 13 8 8 16 8 6 11 7 7 7 8 13 18 12 16 15 14 15 18 33 40 44 47 48 48
46 46 46 46 45 44 44 44 45 45 45 46 46 47 47 46 48 48 47 48 49 49 50 51 52 53 53 54 55 54 49 44 43 43 43 47 52 54 55 56 55 54 50 50 49 46 38 33 30 33 30 22 38 23 31 30 29 18 18 14 6 11 11 15 10 14 8 9 7 12 15 8 9 8 13 10 10 12 10 11 16 12 20 43 45 46 46 46
46 45 45 45 45 45 44 44 44 45 44 45 45 46 46 46 47 46 46 46 48 49 49 50 52 52 53 54 55 54 46 43 41 38 42 52 55 55 54 54 53 52 49 49 48 44 38 35 35 34 32 19 29 22 29 25 26 21 15 9 7 13 11 14 10 22 13 13 9 8 12 8 10 9 18 10 8 14 8 8 10 11 16 40 44 45 46 45
45 45 44 44 44 44 44 44 44 44 44 44 44 45 45 46 46 45 45 45 46 47 48 49 51 51 51 53 54 51 44 42 31 37 48 53 54 54 53 53 49 51 50 49 45 41 41 41 37 34 31 24 26 34 25 28 17 25 15 7 8 11 8 8 10 11 19 13 11 10 14 10 8 11 13 11 9 15 10 9 5 7 14 36 44 44 44 44
44 44 44 44 43 43 43 44 44 44 44 45 44 45 45 45 45 45 45 45 46 46 46 47 48 50 51 51 54 46 43 33 28 44 47 53 54 54 52 52 51 49 49 49 48 47 45 41 35 32 30 21 29 26 26 24 26 26 13 9 9 7 3 4 8 11 14 23 13 12 7 11 22 16 15 13 8 6 19 11 12 21 18 28 42 44 44 44
44 44 44 43 44 44 44 44 44 44 44 44 44 45 45 45 45 45 44 45 45 46 46 47 47 48 50 50 52 45 38 29 38 41 54 51 52 54 54 53 53 48 50 49 47 44 38 32 33 27 24 24 22 16 22 19 28 14 15 15 9 6 4 6 4 15 17 18 14 17 18 21 21 22 15 14 9 11 22 28 16 16 19 23 41 45 44 44
44 44 43 43 43 43 43 43 43 44 44 43 44 45 45 45 45 45 45 45 45 45 45 46 47 47 48 49 49 45 40 39 41 43 49 50 50 50 51 54 55 42 40 44 46 44 35 31 32 30 26 27 22 20 26 27 32 23 12 13 13 9 4 5 3 26 13 12 14 24 29 16 21 12 25 15 14 16 14 26 31 28 26 31 33 44 44 44
43 43 43 43 43 43 43 42 43 43 43 43 45 45 45 44 45 45 45 45 45 45 45 45 45 47 48 47 45 41 41 40 42 44 51 47 44 47 48 46 46 43 43 38 38 40 34 30 30 33 25 22 27 23 27 27 31 22 20 22 19 14 16 18 7 8 20 19 21 30 24 24 25 20 24 19 23 23 21 25 33 34 35 35 31 38 43 45
43 43 43 43 43 42 42 42 42 43 43 44 45 45 45 46 45 44 44 44 44 45 45 45 44 46 47 47 45 41 40 43 43 42 44 40 42 41 42 43 42 40 38 35 34 35 32 30 31 33 27 26 29 28 27 23 14 23 21 26 25 19 18 15 20 13 9 13 19 16 16 26 30 32 24 25 25 29 31 32 32 31 29 32 33 35 37 41
43 43 43 43 43 42 43 43 42 42 43 44 45 45 45 45 44 43 43 43 44 46 46 46 44 45 45 46 44 37 41 41 38 40 43 41 40 39 38 39 40 38 34 33 32 32 32 30 27 34 33 30 32 25 29 24 15 23 27 23 18 18 22 23 19 20 24 22 20 14 16 17 30 24 13 25 21 26 31 30 32 31 28 30 31 32 36 36
43 43 42 42 43 43 42 43 43 44 44 44 45 45 44 45 43 42 41 44 48 49 47 45 43 44 43 45 40 37 40 39 37 38 40 40 39 37 37 38 40 38 37 34 32 31 30 32 34 34 32 28 30 28 29 27 30 25 22 23 22 26 26 25 21 19 22 19 23 20 21 25 26 24 15 22 27 24 22 24 27 29 27 25 29 31 30 33
43 43 43 42 42 42 43 44 43 43 44 44 44 44 44 43 41 41 40 46 42 45 51 44 43 46 46 44 41 42 41 38 37 36 40 39 38 37 38 37 36 37 36 34 36 38 37 37 35 32 22 33 24 29 24 31 30 26 21 20 21 21 21 24 24 26 28 21 27 28 21 17 20 19 23 25 30 31 28 27 30 30 28 25 23 26 27 27
43 42 42 42 42 42 42 43 43 43 43 44 44 43 42 40 40 41 39 45 42 40 46 49 42 46 44 38 41 44 45 45 44 43 39 38 39 39 39 38 38 37 36 36 36 38 39 37 36 33 33 30 31 16 28 31 30 28 24 22 23 22 19 21 27 28 27 25 28 22 6 4 8 15 24 26 26 28 23 19 21 24 26 27 25 23 23 26
43 43 42 41 41 42 42 42 43 42 43 43 43 42 40 38 40 39 39 44 44 42 42 50 45 46 43 39 44 45 46 46 45 44 44 39 37 39 40 40 39 39 40 37 37 38 40 39 36 34 36 30 29 34 29 29 30 23 26 22 18 15 13 17 21 28 24 31 29 22 9 4 10 15 26 27 28 26 18 17 19 21 22 23 25 24 23 25
43 43 43 42 41 41 42 42 42 41 42 42 41 40 37 39 39 39 40 44 43 41 42 53 47 46 39 40 46 48 51 44 44 43 44 40 37 37 37 40 39 39 38 38 38 41 40 37 32 26 25 34 32 28 26 24 26 26 17 17 20 15 10 12 21 23 19 25 30 23 15 11 10 11 24 29 30 28 19 14 15 17 19 21 23 25 25 26
44 42 41 41 40 41 41 42 41 41 42 41 39 38 37 39 38 39 42 39 41 39 43 43 45 43 40 35 40 46 43 41 42 44 45 42 38 37 38 39 40 40 39 37 42 41 37 35 28 30 27 26 27 25 23 22 19 23 17 14 15 17 15 15 15 20 18 27 29 22 15 18 10 16 18 22 25 27 23 21 19 21 21 21 24 27 29 30
42 41 42 41 41 40 41 41 41 41 41 40 37 36 38 37 38 39 40 40 32 35 44 42 46 46 33 40 40 37 36 38 42 40 41 42 38 38 37 37 36 38 39 38 39 33 31 29 30 27 30 23 26 25 22 21 20 18 21 16 21 15 16 11 19 20 21 23 20 24 18 13 12 23 27 33 36 29 23 22 23 24 22 22 24 26 28 31
42 41 41 42 41 40 40 41 41 42 41 38 36 37 32 36 37 38 35 32 31 44 44 46 45 35 29 37 34 35 34 38 35 37 41 41 39 38 37 35 36 37 38 34 35 27 31 26 29 22 24 25 25 23 20 14 15 14 16 18 18 18 18 15 15 23 20 17 19 18 20 16 13 12 15 21 37 34 26 23 20 19 21 24 26 26 26 27
41 40 40 40 41 40 40 40 41 41 40 38 36 36 32 35 33 29 26 27 20 24 19 30 35 25 15 31 29 30 37 32 35 41 39 42 44 41 41 39 38 35 34 31 31 28 29 25 26 22 19 21 21 22 21 17 14 15 15 16 17 16 15 15 19 23 19 16 16 17 14 15 17 16 15 14 18 29 32 32 31 30 29 29 28 28 27 28
41 41 40 40 40 40 40 40 41 41 39 34 27 26 26 21 18 14 23 26 19 15 17 19 25 25 22 23 26 34 33 36 37 42 43 44 39 37 37 37 36 34 32 28 31 28 30 21 19 18 17 18 21 22 21 22 21 19 18 15 14 14 15 18 18 22 25 21 18 16 17 15 16 18 18 18 18 18 20 22 25 29 31 31 30 30 30 29
42 41 41 41 40 41 40 41 41 41 38 30 27 24 22 22 14 11 23 25 26 27 24 24 24 22 22 25 28 29 24 29 33 36 37 44 40 37 33 34 32 30 30 31 31 35 30 23 19 18 19 20 21 23 22 21 21 20 18 16 15 15 14 16 15 25 29 20 14 18 19 18 18 18 20 21 21 20 20 21 20 20 22 26 28 28 28 29
42 41 40 40 40 40 40 41 42 39 37 29 27 24 23 25 24 23 25 20 21 27 27 25 28 27 30 29 30 29 30 28 25 28 34 38 36 32 32 32 30 29 29 31 31 30 28 24 23 22 21 20 22 22 23 22 20 19 17 15 13 13 16 20 22 25 26 25 18 16 18 19 22 22 22 22 22 20 21 22 21 20 20 20 22 24 25 24
44 42 41 41 40 40 40 41 41 38 30 28 27 26 26 28 31 32 28 25 24 28 27 27 27 27 28 32 32 34 28 25 18 28 33 36 33 34 32 30 29 28 27 29 27 27 25 27 27 23 20 18 18 20 22 23 22 19 18 15 12 12 9 11 19 22 24 24 21 20 18 21 22 21 21 22 23 23 26 27 25 24 21 20 19 20 22 22
44 44 43 41 40 40 40 40 42 34 30 28 26 27 29 32 32 31 27 23 21 24 25 28 29 29 29 30 34 32 27 26 25 26 36 35 33 32 31 29 28 27 28 27 27 26 24 26 30 25 21 18 16 18 20 20 19 21 20 17 14 14 13 11 12 21 22 22 21 20 20 19 20 20 21 20 21 23 23 23 24 24 25 23 23 22 21 18
43 44 44 43 40 40 40 40 36 32 30 29 27 29 31 33 32 32 27 24 22 23 28 30 31 31 28 35 33 31 31 29 30 33 37 36 34 32 31 31 29 28 28 27 27 27 27 27 29 27 24 21 20 18 19 19 15 17 20 19 17 17 13 16 17 16 13 12 19 20 13 10 13 19 20 21 19 16 17 18 17 19 20 21 20 20 19 22
43 43 43 44 42 40 40 33 30 31 29 27 26 31 32 33 33 34 27 16 10 18 27 29 33 27 31 17 21 29 35 32 35 33 39 38 41 35 35 32 31 27 27 27 27 27 27 28 27 26 25 25 23 20 20 19 15 14 14 19 20 19 13 15 15 14 11 9 13 20 9 3 11 13 16 19 20 19 14 14 12 12 14 16 18 18 18 18
43 43 42 43 41 40 33 28 32 31 27 28 30 32 32 33 34 33 20 -4 -6 12 26 32 31 28 26 18 21 28 13 16 26 36 39 44 37 42 34 32 33 32 29 27 27 25 26 27 26 26 25 24 24 22 22 20 17 15 19 19 19 19 18 16 16 14 15 16 18 16 13 7 3 9 14 17 17 18 18 15 13 11 11 12 14 16 17 18
43 43 42 42 42 41 34 33 31 30 29 30 32 32 33 33 34 31 6 -16 -19 8 21 20 31 31 19 17 22 19 16 16 4 29 39 41 41 38 35 31 30 30 31 28 21 26 28 24 26 25 24 24 23 23 23 22 19 18 20 21 19 18 19 18 17 15 15 13 11 14 14 7 8 9 10 16 12 14 17 17 13 13 13 12 13 14 15 17
43 43 43 42 42 41 38 32 30 29 31 33 33 33 34 34 33 20 -4 -12 -10 14 26 22 29 21 17 17 13 10 10 14 5 18 32 35 39 38 32 34 34 33 33 31 27 28 26 25 26 27 25 23 24 24 24 23 20 21 23 25 22 23 21 20 18 17 15 12 10 14 14 8 7 11 9 11 11 12 14 14 13 13 12 13 15 14 14 15
44 43 43 43 41 37 34 35 31 33 33 34 34 33 34 32 24 8 -12 -18 -2 -3 21 20 17 10 15 7 8 13 4 8 19 25 28 29 31 36 34 36 32 29 29 31 30 30 30 32 34 30 27 26 25 25 25 25 22 25 27 23 22 21 20 22 20 19 13 11 12 14 15 11 6 8 9 9 9 7 5 9 12 13 14 16 18 16 17 16
44 43 43 43 37 36 34 32 33 32 34 34 33 30 25 14 2 -12 -11 -5 3 6 16 14 9 15 9 5 3 12 2 7 12 23 17 21 20 26 26 21 31 29 29 29 28 29 29 30 29 29 32 28 24 24 24 27 27 25 24 24 23 21 23 20 16 19 14 11 15 17 15 15 7 8 11 5 4 5 4 7 7 8 10 14 17 20 19 18
43 43 43 41 41 39 33 31 31 34 34 34 31 25 15 -5 -1 -11 -10 11 -7 6 4 1 8 9 7 10 2 0 7 10 13 14 9 10 15 15 16 13 19 16 13 14 15 21 25 28 30 30 32 29 27 24 24 22 25 24 24 24 20 16 17 13 16 14 13 11 15 18 17 10 12 10 10 5 6 4 5 7 7 8 8 10 12 16 21 23
45 44 43 42 41 37 36 37 35 34 33 33 26 18 0 -9 -13 -7 -1 -4 -10 3 1 10 5 5 5 1 -2 0 8 7 16 16 12 14 12 12 19 21 21 24 14 20 20 18 18 23 28 28 29 30 28 23 22 22 23 22 22 22 19 14 14 9 13 13 14 16 19 14 15 11 11 12 12 11 9 8 9 9 8 8 8 9 11 16 18 21
44 44 41 41 40 39 38 37 36 33 30 31 18 10 3 -10 -7 16 -7 -5 -3 12 9 7 7 6 2 1 -2 15 9 8 7 8 12 10 13 8 9 17 19 16 20 21 16 18 13 12 19 26 24 26 27 25 23 22 22 22 21 22 20 17 14 9 12 10 11 12 16 15 11 6 11 10 10 11 11 11 10 9 10 10 9 8 12 16 20 24
43 44 41 40 40 40 39 39 35 37 29 21 9 -3 -2 -7 -6 -10 -9 -7 1 11 7 6 3 4 4 2 5 14 7 0 8 5 10 6 2 5 2 11 21 18 14 10 15 12 17 18 21 21 20 18 21 24 27 25 23 22 21 22 20 19 20 16 16 15 13 12 10 8 11 15 12 13 15 12 13 11 12 11 12 10 10 10 10 9 9 9
43 41 40 37 36 36 36 37 34 29 24 16 8 4 1 -3 -4 -5 0 11 10 6 5 7 1 -1 -8 -4 2 10 7 3 4 5 -0 6 6 2 8 15 18 17 12 8 14 8 13 8 16 15 17 18 21 19 23 27 18 22 22 19 20 20 21 18 19 21 18 16 12 14 12 12 11 10 11 13 12 11 11 11 11 10 11 12 13 13 11 10
40 41 37 37 37 37 35 35 34 29 25 19 10 8 5 1 8 9 19 11 11 8 5 -1 -1 -1 -9 -10 -8 1 6 7 1 2 -4 3 -0 2 18 22 24 21 18 16 11 16 9 9 15 12 10 23 21 19 19 25 26 25 20 20 22 22 22 20 15 16 16 14 14 17 13 10 9 11 15 14 12 12 12 12 13 12 12 11 14 16 15 15
40 39 38 37 37 37 35 34 31 28 26 20 14 20 11 8 16 10 15 14 13 11 5 2 0 2 -8 -7 -5 2 4 3 1 2 -2 2 -7 13 17 19 22 19 18 19 9 11 14 5 8 13 17 19 19 17 16 22 29 25 23 28 20 15 17 19 16 13 12 12 13 16 17 15 11 12 15 13 11 12 12 13 11 10 11 12 11 12 13 17
40 37 32 36 38 37 35 33 29 26 23 17 14 16 17 14 17 13 15 15 14 9 7 8 2 1 4 -1 -0 -1 2 -0 2 1 -9 -5 -2 3 7 12 7 17 18 17 11 15 13 2 3 8 15 16 13 17 10 19 19 25 28 25 26 25 21 17 18 18 17 12 12 11 15 14 16 13 14 14 14 13 14 14 9 7 8 9 10 12 12 14
35 32 30 35 37 37 34 30 27 25 21 15 15 16 17 11 17 18 16 15 12 10 9 7 7 4 4 5 3 -1 2 3 2 1 -0 2 0 6 3 10 4 17 18 15 9 15 7 12 1 7 12 8 5 20 18 14 11 14 15 15 16 22 25 24 22 19 15 12 12 12 10 13 15 15 15 15 15 15 15 15 17 16 16 16 14 12 14 14
37 31 31 35 36 33 32 30 26 22 19 20 19 17 18 16 18 17 18 17 15 15 11 9 9 6 4 3 5 6 1 4 2 -3 1 1 2 -3 4 5 11 6 19 18 13 13 4 11 6 10 7 3 3 9 15 16 16 16 15 14 17 15 11 11 11 23 19 16 12 10 10 12 20 17 17 13 14 14 16 18 18 18 17 17 18 20 21 21
32 26 29 34 34 32 29 23 24 24 21 19 17 20 18 23 19 18 17 17 15 13 16 12 10 8 7 5 6 6 5 1 5 3 2 3 2 4 5 8 5 10 5 5 9 13 12 7 6 2 3 4 5 13 16 15 15 14 14 16 18 17 17 11 6 12 11 10 14 17 13 14 18 15 16 16 17 17 16 17 20 22 22 23 23 24 24 25
31 29 35 34 33 31 28 24 26 24 20 21 22 22 22 20 20 20 18 17 15 15 13 11 11 8 7 7 7 8 8 4 7 5 4 5 5 5 4 11 6 7 10 11 16 14 16 6 7 8 9 7 4 6 10 13 14 11 16 18 15 12 15 11 11 12 8 8 10 14 15 14 19 19 17 14 14 13 13 15 21 24 22 22 23 24 25 25
32 31 33 34 34 32 27 18 19 21 21 22 22 21 22 21 20 20 19 18 15 14 13 12 12 10 9 9 8 7 10 3 7 6 5 7 6 7 6 7 5 5 6 6 5 11 4 5 7 1 -4 -6 -4 -1 9 15 19 17 16 16 13 15 15 15 15 14 8 7 11 7 5 16 22 17 15 12 10 11 12 13 17 21 21 22 23 25 25 25
30 31 32 33 33 29 24 25 23 22 21 21 20 20 20 20 21 21 19 18 18 17 15 13 12 12 11 11 10 9 9 7 0 8 6 7 6 7 7 7 7 7 8 13 16 9 1 2 -2 -7 -11 -14 -19 -20 -13 -1 7 5 3 7 8 16 11 10 3 7 5 9 9 6 6 10 12 14 12 9 8 9 11 13 14 17 21 21 23 25 25 25
27 22 29 26 31 30 29 27 25 23 22 21 20 21 21 20 21 22 22 21 20 18 16 15 15 14 12 11 9 8 8 9 6 -0 8 6 7 6 8 7 7 7 14 16 19 14 -1 4 2 1 -4 -8 -8 -9 -1 1 -1 -2 0 3 6 10 13 12 10 8 3 4 5 7 10 11 13 12 10 9 8 8 11 13 12 14 19 21 22 23 24 24
27 25 24 21 26 27 23 26 26 25 22 24 19 21 19 20 20 20 22 19 21 19 17 16 15 13 13 12 11 9 9 8 9 7 7 8 7 7 5 7 7 11 17 16 19 10 -1 2 4 2 1 1 -0 -2 -2 1 -2 1 2 4 5 6 10 10 10 5 9 7 2 8 14 11 10 10 9 7 7 8 10 12 11 13 20 20 20 22 25 23
21 27 28 26 20 19 21 21 24 23 24 24 21 23 20 19 19 18 21 21 21 21 17 18 17 15 14 12 11 8 9 8 8 8 9 7 5 7 6 6 5 12 17 11 18 13 3 1 3 3 3 4 3 2 1 1 2 2 3 4 5 7 8 8 9 12 13 8 3 8 10 10 9 9 8 7 6 8 12 11 10 16 19 19 20 20 21 23
29 29 28 29 23 24 23 24 24 23 22 22 21 22 20 19 19 19 19 18 21 19 19 14 16 15 15 14 13 9 9 5 5 9 8 8 8 7 5 3 6 8 13 11 12 9 3 1 2 1 1 1 3 4 5 4 4 5 5 5 7 7 7 8 9 9 9 7 8 8 7 7 8 7 6 6 9 13 12 11 14 15 17 19 19 19 20 23
25 26 24 28 27 25 24 24 23 22 21 24 20 20 19 19 18 19 20 20 17 18 20 17 16 16 15 15 14 10 10 9 8 6 8 8 8 9 6 6 5 9 13 12 9 10 7 1 7 -0 0 1 2 5 6 6 6 5 6 7 7 6 4 1 2 4 5 4 4 3 3 2 5 5 7 11 14 11 9 10 12 14 15 18 18 17 20 23
31 31 30 26 21 23 24 24 22 21 19 20 19 20 20 19 17 19 17 21 19 17 18 16 17 17 17 15 15 13 12 10 10 10 10 9 7 10 7 5 6 7 9 9 9 3 7 -5 3 0 -2 -1 2 3 4 5 6 3 1 1 2 1 -0 -1 -0 0 2 3 4 5 5 5 8 10 12 14 12 9 9 12 14 13 14 16 16 16 21 25
31 33 32 27 19 24 20 22 22 22 17 19 19 18 19 18 21 22 19 23 23 23 22 18 17 15 14 16 14 14 14 13 13 13 14 16 14 13 13 10 9 7 9 8 5 2 4 -3 -2 -5 -4 -2 -1 1 1 -2 -2 -5 -3 -1 -2 -1 -2 -4 -5 -1 1 4 4 4 4 6 6 10 11 9 9 9 12 13 13 13 14 15 14 15 25 27